Location: Cardiff
(53.7833°N, 113.6000°W)
Time: 06:58:44
(UTC+00:00)

SO-50 - Pass Details

Date: 14 December 2023
Orbit: 608 x 660 km, 64.6° (Epoch: 02 March)

Event Time Altitude Azimuth Distance (km) Brightness Sun altitude
Exits shadow 11:29:19 12° 36° (NE) 1,899 ? -36.1°
Drops below altitude 10° 11:29:44 10° 39° (NE) 2,032 ? -36.0°
Sets 11:32:18 0° 52° (NE) 2,932 ? -35.6°
